Weather History for Kuala Lumpur Aziz, Malaysia

Change the Weather History Date:

Monday, October 29, 2012

  Actual Average Record
Temperature  
Mean Temperature 86 °F -  
Max Temperature 93 °F - - ()
Min Temperature 78 °F - - ()
Cooling Degree Days 20    
Growing Degree Days 36 (Base 50)    
Moisture  
Dew Point 77 °F    
Average Humidity 85    
Maximum Humidity 94    
Minimum Humidity 56    
Precipitation  
Precipitation 0.00 in - - ()
Sea Level Pressure  
Sea Level Pressure 29.76 in    
Wind  
Wind Speed 2 mph ()    
Max Wind Speed 13 mph    
Max Gust Speed -    
Visibility 4.4 miles    
Events Rain , Thunderstorm    
T = Trace of Precipitation, MM = Missing Value Source: Averaged Metar Reports

Daily Weather History Graph

Daily Weather History Graph

Search for Another Location

Airport:

Trip Planner

Search our weather history database for the weather conditions in past years. The results will help you decide how hot, cold, wet, or windy it might be!

Date:

Astronomy

Oct. 29, 2012 Rise Set
Actual Time 6:57 AM MYT 6:57 PM MYT
Civil Twilight 6:35 AM MYT 7:19 PM MYT
Nautical Twilight 6:11 AM MYT 7:43 PM MYT
Astronomical Twilight 5:46 AM MYT 8:08 PM MYT
Moon 6:35 PM MYT (10/29) 6:17 AM MYT (10/29)
Length of Visible Light 12h 43m
Length of Day
12h 00m
Full, 100% of the Moon is Illuminated
Oct 29
Full
Oct 30
Full
Nov 7
Last Quarter
Nov 14
New
Nov 20
First Quarter

Hourly Weather History & Observations

Time (MYT) Temp. Heat Index Dew Point Humidity Pressure Visibility Wind Dir Wind Speed Gust Speed Precip Events Conditions
12:00 AM 78.8 °F - 77.0 °F 94% 29.80 in 3.1 mi NNW 1.2 mph - N/A   Haze
1:00 AM 78.8 °F - 77.0 °F 94% 29.80 in 3.1 mi NW 2.3 mph - N/A   Haze
2:00 AM 78.8 °F - 77.0 °F 94% 29.77 in 3.1 mi Calm Calm - N/A   Mostly Cloudy
3:00 AM 78.8 °F - 77.0 °F 94% 29.74 in 3.1 mi Calm Calm - N/A   Mostly Cloudy
4:00 AM 78.8 °F - 77.0 °F 94% 29.74 in 3.1 mi WNW 1.2 mph - N/A   Mostly Cloudy
5:00 AM 78.8 °F - 77.0 °F 94% 29.74 in 2.5 mi NNE 1.2 mph - N/A   Mostly Cloudy
6:00 AM 78.8 °F - 77.0 °F 94% 29.77 in 2.5 mi ENE 2.3 mph - N/A   Mostly Cloudy
7:00 AM 78.8 °F - 77.0 °F 94% 29.77 in 4.3 mi Calm Calm - N/A   Mostly Cloudy
8:00 AM 80.6 °F 88.1 °F 78.8 °F 94% 29.80 in 4.3 mi NNW 2.3 mph - N/A   Mostly Cloudy
9:00 AM 84.2 °F 96.1 °F 78.8 °F 84% 29.80 in 6.2 mi ENE 3.5 mph - N/A   Mostly Cloudy
10:00 AM 87.8 °F 99.7 °F 77.0 °F 70% 29.80 in 6.2 mi East 2.3 mph - N/A   Mostly Cloudy
11:00 AM 89.6 °F 102.2 °F 77.0 °F 66% 29.80 in 6.2 mi ENE 3.5 mph - N/A   Mostly Cloudy
12:00 PM 91.4 °F 105.1 °F 77.0 °F 63% 29.80 in 6.2 mi SE 4.6 mph - N/A   Mostly Cloudy
1:00 PM 93.2 °F 105.0 °F 75.2 °F 56% 29.74 in 6.2 mi SSE 4.6 mph - N/A   Mostly Cloudy
2:00 PM 93.2 °F 105.0 °F 75.2 °F 56% 29.71 in 6.2 mi WSW 3.5 mph - N/A   Mostly Cloudy
3:00 PM 89.6 °F 104.7 °F 78.8 °F 70% 29.68 in 5.0 mi West 12.7 mph - N/A   Mostly Cloudy
4:00 PM 80.6 °F 87.1 °F 77.0 °F 89% 29.68 in 3.1 mi West 12.7 mph - N/A Rain , Thunderstorm Thunderstorms and Rain
5:00 PM 80.6 °F 87.1 °F 77.0 °F 89% 29.68 in 5.0 mi West 5.8 mph - N/A   Mostly Cloudy
6:00 PM 80.6 °F 87.1 °F 77.0 °F 89% 29.71 in 4.3 mi NW 3.5 mph - N/A   Mostly Cloudy
7:00 PM 80.6 °F 87.1 °F 77.0 °F 89% 29.71 in 4.3 mi East 2.3 mph - N/A   Mostly Cloudy
8:00 PM 80.6 °F 87.1 °F 77.0 °F 89% 29.74 in 4.3 mi ESE 2.3 mph - N/A   Mostly Cloudy
9:00 PM 80.6 °F 88.1 °F 78.8 °F 94% 29.77 in 5.0 mi NNE 1.2 mph - N/A   Mostly Cloudy
10:00 PM 80.6 °F 88.1 °F 78.8 °F 94% 29.80 in 5.0 mi Calm Calm - N/A   Mostly Cloudy
11:00 PM 80.6 °F 88.1 °F 78.8 °F 94% 29.80 in 3.1 mi North 1.2 mph - N/A Rain Rain